星链-6031 (STARLINK-6031 )

导读

STARLINK-6031是美国SpaceX公司星链(Starlink)低轨互联网星座的组成卫星,于2023年5月31日由猎鹰9号运载火箭发射升空。作为星链组网的一员,它运行在近地轨道,配备相控阵天线与推进系统,为全球提供高速低延迟卫星互联网接入,尤其可为偏远、基础设施匮乏区域提供宽带服务,支撑了星链全球覆盖的星座部署进程。

基本信息
目录编号:
56810
目录名称:
STARLINK-6031
国际标识:
2023-078AV
轨道中心:
EARTH
卫星名称:
星链-6031
卫星全名:
星链-6031 (STARLINK-6031 )
卫星状态:
在轨 (已飞行1110 天)
发射日期:
2023-05-31 UTC
国别 :
美国 (US)
星等 :
--
轨道信息
数据来源 国际轨道数据 AOE轨道数据
星历时间 2026-06-14T13:44:11+0800
16小时前
查看轨道信息
2026-06-10T05:00:00+0800
5天前
查看轨道信息
半长轴 6950.194km 6950.154km
偏心率 0.0003078 0.000329
轨道倾角 69.999° 69.999°
近地点辐角 264.897° 266.555°
升交点赤经 100.970° 111.972°
平近点角 95.184° 320.685°
近地点 569.917km 569.73km
远地点 574.197km 574.304km
周期 96.107分钟 96.106分钟
每日圈数 14.983297 14.983428
详细信息
固有亮度:
5
最大亮度:
2.5
卫星平台:
Starlink v1.5
覆盖范围:
全球
运营商:
太空探索技术公司
运营商所在国:
美国
制造商(研发单位):
太空探索技术公司
制造商所在国:
美国
使用方式:
暂无
卫星简介
星链(Starlink)计划是由太空探索技术公司(SpaceX)提出的一个巨型低轨卫星互联网星座项目,计划在2019年至2024年间在太空搭建由约1.2万颗卫星组成的“星链”网络,其中1584颗将部署在地球上空550千米处的近地轨道,并从2020年开始工作。该卫星仍在工作。
2D轨道图
3D轨道图
轨道高度分析图
轨道倾角分析图
轨道综合分析图
查看轨道综合分析图